User: anonymous   Login
Location: Caltech
(34.1382°N, 118.1253°W)
Time: 04:53:25
(UTC-07:00)
Language:

Cosmos 1025 Rocket - Orbit

View from above orbital plane
View from above orbital plane
View from above satellite
View from above satellite

Ground track
Ground track

The orbit data is extracted from the following two-line orbital elements,

1 10974U 78067B   17085.94598232 +.00000110 +00000-0 +95276-5 0  9998
2 10974 082.4807 247.0778 0015965 254.6474 105.2979 14.87218717074229
Epoch (UTC): 26 March 2017 22:42:12
Eccentricity: 0.0015965
inclination: 82.4807°
perigee height: 595 km
apogee height: 618 km
right ascension of ascending node: 247.0778°
argument of perigee: 254.6474°
revolutions per day: 14.87218717
mean anomaly at epoch: 105.2979°
orbit number at epoch: 7422

The dashed part of the orbit path shows where the satellite is in the earth's shadow,  

DLR